Overview Statistics Trail Chart Weather Telemetry Raw packets
 

This is the latest recevied weather packets stored in our database for station/object WI0K. If no packets are shown the sender has not sent any weather packets the latest 10 day(s).

<< 2 3 4 5 6 7 8 >>
Time Temp. Humidity Pressure Rain* Wind** Luminosity Snow
1788643256 32.78° C 23% 1017.5 hPa 0 mm - 183 W/m² -
1788642955 32.78° C 22% 1017.5 hPa 0 mm - 191 W/m² -
1788642654 32.78° C 22% 1017.5 hPa 0 mm - 791 W/m² -
1788642353 32.78° C 23% 1017.6 hPa 0 mm - 757 W/m² -
1788642052 33.33° C 22% 1017.6 hPa 0 mm - 678 W/m² -
1788641751 33.33° C 22% 1017.6 hPa 0 mm - 680 W/m² -
1788641451 32.78° C 24% 1017.6 hPa 0 mm - 756 W/m² -
1788641150 32.78° C 22% 1017.7 hPa 0 mm - 755 W/m² -
1788640849 32.78° C 23% 1017.8 hPa 0 mm - 811 W/m² -
1788640549 32.22° C 23% 1017.9 hPa 0 mm - 827 W/m² -
1788640248 32.22° C 22% 1017.9 hPa 0 mm - 840 W/m² -
1788639946 32.22° C 22% 1018.1 hPa 0 mm - 841 W/m² -
1788639645 32.22° C 22% 1018.2 hPa 0 mm - 854 W/m² -
1788639345 32.22° C 23% 1018.2 hPa 0 mm - 802 W/m² -
1788639044 32.22° C 23% 1018.2 hPa 0 mm - 827 W/m² -
1788638743 32.78° C 23% 1018.2 hPa 0 mm - 852 W/m² -
1788638442 32.22° C 25% 1018.2 hPa 0 mm - 878 W/m² -
1788638142 32.22° C 24% 1018.3 hPa 0 mm - 880 W/m² -
1788637841 31.67° C 24% 1018.4 hPa 0 mm - 909 W/m² -
1788637540 31.67° C 24% 1018.4 hPa 0 mm - 972 W/m² -
1788637239 31.67° C 23% 1018.5 hPa 0 mm - 987 W/m² -
1788636938 31.67° C 24% 1018.5 hPa 0 mm - 999 W/m² -
1788636637 31.11° C 24% 1018.5 hPa 0 mm - 999 W/m² -
1788636337 31.11° C 24% 1018.5 hPa 0 mm - 977 W/m² -
1788636036 30.56° C 24% 1018.6 hPa 0 mm - 886 W/m² -

* Rain latest hour (hover to see other rain measurements)
** Current wind speed in m/s (hover to see current wind gust speed)